timestamp,surface_pressure_avg,surface_temp_avg,battery_voltage,lat,long
2018-01-31 00:00:00+00:00,362.6063,1.2,12.41,47.84626,-54.09684
2018-01-31 00:10:00+00:00,364.5911,1.24,12.41,47.84626,-54.09684
2018-01-31 00:20:00+00:00,362.088,1.3,12.49,47.84626,-54.09684
2018-01-31 00:30:00+00:00,348.3463,1.3,12.49,47.84626,-54.09684
2018-01-31 00:40:00+00:00,340.8112,1.29,12.49,47.84626,-54.09684
2018-01-31 00:50:00+00:00,347.788,1.3,12.49,47.84626,-54.09684
2018-01-31 01:00:00+00:00,334.2746,1.3,12.41,47.84626,-54.09684
2018-01-31 01:10:00+00:00,312.283,1.3,12.41,47.84626,-54.09684
2018-01-31 01:20:00+00:00,302.808,1.29,12.49,47.84626,-54.09684
2018-01-31 01:30:00+00:00,304.8063,1.3,12.49,47.84626,-54.09684
2018-01-31 01:40:00+00:00,286.668,1.3,12.49,47.84626,-54.09684
2018-01-31 01:50:00+00:00,269.4548,1.33,12.49,47.84626,-54.09684
2018-01-31 02:00:00+00:00,274.2814,1.4,12.41,47.84626,-54.09684
2018-01-31 02:10:00+00:00,271.7381,1.4,12.41,47.84626,-54.09684
2018-01-31 02:20:00+00:00,246.9632,1.3,12.49,47.84626,-54.09684
2018-01-31 02:30:00+00:00,237.5381,1.35,12.49,47.84626,-54.09684
2018-01-31 02:40:00+00:00,243.2764,1.4,12.49,47.84626,-54.09684
2018-01-31 02:50:00+00:00,232.6381,1.49,12.49,47.84626,-54.09684
2018-01-31 03:00:00+00:00,215.9831,1.46,12.41,47.84626,-54.09684
2018-01-31 03:10:00+00:00,206.2531,1.5,12.41,47.84626,-54.09684
2018-01-31 03:20:00+00:00,207.0714,1.5,12.49,47.84626,-54.09684
2018-01-31 03:30:00+00:00,203.9998,1.56,12.49,47.84626,-54.09684
2018-01-31 03:40:00+00:00,195.8781,1.59,12.49,47.84626,-54.09684
2018-01-31 03:50:00+00:00,198.9148,1.58,12.49,47.84626,-54.09684
2018-01-31 04:00:00+00:00,194.3698,1.4,12.41,47.84626,-54.09684
2018-01-31 04:10:00+00:00,186.6382,1.4,12.41,47.84626,-54.09684
2018-01-31 04:20:00+00:00,195.1648,1.43,12.49,47.84626,-54.09684
2018-01-31 04:30:00+00:00,204.2264,1.5,12.49,47.84626,-54.09684
2018-01-31 04:40:00+00:00,202.5331,1.5,12.49,47.84626,-54.09684
2018-01-31 04:50:00+00:00,186.9215,1.2,12.49,47.84626,-54.09684
2018-01-31 05:00:00+00:00,181.7265,1.25,12.41,47.84626,-54.09684
2018-01-31 05:10:00+00:00,187.5582,1.3,12.41,47.84626,-54.09684
2018-01-31 05:20:00+00:00,187.5248,1.3,12.49,47.84626,-54.09684
2018-01-31 05:30:00+00:00,185.7098,1.3,12.49,47.84626,-54.09684
2018-01-31 05:40:00+00:00,187.6048,1.39,12.49,47.84626,-54.09684
2018-01-31 05:50:00+00:00,193.2348,1.4,12.49,47.84626,-54.09684
2018-01-31 06:00:00+00:00,198.8198,1.49,12.41,47.84626,-54.09684
2018-01-31 06:10:00+00:00,203.5081,1.5,12.41,47.84626,-54.09684
2018-01-31 06:20:00+00:00,223.7864,1.43,12.49,47.84626,-54.09684
2018-01-31 06:30:00+00:00,229.6197,1.47,12.49,47.84626,-54.09684
2018-01-31 06:40:00+00:00,221.3214,1.48,12.49,47.84626,-54.09684
2018-01-31 06:50:00+00:00,225.6515,1.41,12.57,47.84626,-54.09684
2018-01-31 07:00:00+00:00,240.7432,1.5,12.49,47.84626,-54.09684
2018-01-31 07:10:00+00:00,250.5614,1.56,12.41,47.84626,-54.09684
2018-01-31 07:20:00+00:00,253.0198,1.5,12.49,47.84626,-54.09684
2018-01-31 07:30:00+00:00,252.0563,1.45,12.49,47.84626,-54.09684
2018-01-31 07:40:00+00:00,263.5765,1.5,12.49,47.84626,-54.09684
2018-01-31 07:50:00+00:00,270.1765,1.53,12.57,47.84626,-54.09684
2018-01-31 08:00:00+00:00,276.0031,1.5,12.49,47.84626,-54.09684
2018-01-31 08:10:00+00:00,282.3114,1.5,12.41,47.84626,-54.09684
2018-01-31 08:20:00+00:00,296.5914,1.44,12.49,47.84626,-54.09684
2018-01-31 08:30:00+00:00,303.0447,1.49,12.49,47.84626,-54.09684
2018-01-31 08:40:00+00:00,321.3396,1.43,12.49,47.84626,-54.09684
2018-01-31 08:50:00+00:00,327.108,1.43,12.57,47.84626,-54.09684
2018-01-31 09:00:00+00:00,326.3613,1.4,12.49,47.84626,-54.09684
2018-01-31 09:10:00+00:00,326.1146,1.41,12.41,47.84626,-54.09684
2018-01-31 09:20:00+00:00,336.8896,1.5,12.49,47.84626,-54.09684
2018-01-31 09:30:00+00:00,351.7581,1.5,12.49,47.84626,-54.09684
2018-01-31 09:40:00+00:00,357.0229,1.5,12.49,47.84626,-54.09684
2018-01-31 09:50:00+00:00,370.033,1.57,12.57,47.84626,-54.09684
2018-01-31 10:00:00+00:00,385.9863,1.6,12.49,47.84626,-54.09684
2018-01-31 10:10:00+00:00,393.5129,1.6,12.41,47.84626,-54.09684
2018-01-31 10:20:00+00:00,398.2712,1.5,12.49,47.84626,-54.09684
2018-01-31 10:30:00+00:00,405.6429,1.5,12.49,47.84626,-54.09684
2018-01-31 10:40:00+00:00,409.6812,1.5,12.49,47.84626,-54.09684
2018-01-31 10:50:00+00:00,402.5428,1.5,12.57,47.84626,-54.09684
2018-01-31 11:00:00+00:00,401.9346,1.52,12.49,47.84626,-54.09684
2018-01-31 11:10:00+00:00,407.6312,1.5,12.49,47.84626,-54.09684
2018-01-31 11:20:00+00:00,405.8762,1.54,12.49,47.84626,-54.09684
2018-01-31 11:30:00+00:00,401.8695,1.54,12.49,47.84626,-54.09684
2018-01-31 11:40:00+00:00,409.8796,1.52,12.57,47.84626,-54.09684
2018-01-31 11:50:00+00:00,411.4844,1.52,12.57,47.84626,-54.09684
2018-01-31 12:00:00+00:00,413.7845,1.5,12.49,47.84626,-54.09684
2018-01-31 12:10:00+00:00,410.4678,1.5,12.49,47.84626,-54.09684
2018-01-31 12:20:00+00:00,399.4679,1.5,12.49,47.84626,-54.09684
2018-01-31 12:30:00+00:00,388.8046,1.5,12.49,47.84626,-54.09684
2018-01-31 12:40:00+00:00,388.2062,1.5,12.57,47.84626,-54.09684
2018-01-31 12:50:00+00:00,384.2229,1.5,12.57,47.84626,-54.09684
2018-01-31 13:00:00+00:00,370.5329,1.54,12.49,47.84626,-54.09684
2018-01-31 13:10:00+00:00,368.2896,1.59,12.49,47.84626,-54.09684
2018-01-31 13:20:00+00:00,371.9346,1.59,12.57,47.84626,-54.09684
2018-01-31 13:30:00+00:00,360.3695,1.6,12.49,47.84626,-54.09684
2018-01-31 13:40:00+00:00,351.0463,1.6,12.57,47.84626,-54.09684
2018-01-31 13:50:00+00:00,348.7246,1.6,12.57,47.84626,-54.09684
2018-01-31 14:00:00+00:00,334.1364,1.6,12.49,47.84626,-54.09684
2018-01-31 14:10:00+00:00,312.0897,1.6,12.49,47.84626,-54.09684
2018-01-31 14:20:00+00:00,304.2863,1.6,12.49,47.84626,-54.09684
2018-01-31 14:30:00+00:00,296.738,1.6,12.49,47.84626,-54.09684
2018-01-31 14:40:00+00:00,280.2514,1.6,12.49,47.84626,-54.09684
2018-01-31 14:50:00+00:00,265.298,1.6,12.49,47.84626,-54.09684
2018-01-31 15:00:00+00:00,262.0414,1.6,12.49,47.84626,-54.09684
2018-01-31 15:10:00+00:00,255.7697,1.6,12.41,47.84626,-54.09684
2018-01-31 15:20:00+00:00,239.1998,1.6,12.49,47.84626,-54.09684
2018-01-31 15:30:00+00:00,230.4864,1.6,12.49,47.84626,-54.09684
2018-01-31 15:40:00+00:00,229.8898,1.6,12.49,47.84626,-54.09684
2018-01-31 15:50:00+00:00,215.6381,1.6,12.49,47.84626,-54.09684
2018-01-31 16:00:00+00:00,202.7898,1.6,12.49,47.84626,-54.09684
2018-01-31 16:10:00+00:00,207.9849,1.6,12.41,47.84626,-54.09684
2018-01-31 16:20:00+00:00,206.0415,1.6,12.49,47.84626,-54.09684
2018-01-31 16:30:00+00:00,190.7881,1.61,12.49,47.84626,-54.09684
2018-01-31 16:40:00+00:00,196.1681,1.6,12.49,47.84626,-54.09684
2018-01-31 16:50:00+00:00,205.1281,1.61,12.49,47.84626,-54.09684
2018-01-31 17:00:00+00:00,188.1914,1.63,12.41,47.84626,-54.09684
2018-01-31 17:10:00+00:00,188.9565,1.62,12.41,47.84626,-54.09684
2018-01-31 17:20:00+00:00,202.3581,1.62,12.49,47.84626,-54.09684
2018-01-31 17:30:00+00:00,191.5281,1.64,12.49,47.84626,-54.09684
2018-01-31 17:40:00+00:00,178.8164,1.65,12.49,47.84626,-54.09684
2018-01-31 17:50:00+00:00,178.5398,1.64,12.49,47.84626,-54.09684
2018-01-31 18:00:00+00:00,181.5381,1.63,12.41,47.84626,-54.09684
2018-01-31 18:10:00+00:00,182.4581,1.66,12.41,47.84626,-54.09684
2018-01-31 18:20:00+00:00,180.1414,1.64,12.49,47.84626,-54.09684
2018-01-31 18:30:00+00:00,182.4431,1.61,12.49,47.84626,-54.09684
2018-01-31 18:40:00+00:00,186.0215,1.6,12.49,47.84626,-54.09684
2018-01-31 18:50:00+00:00,181.1882,1.6,12.49,47.84626,-54.09684
2018-01-31 19:00:00+00:00,184.5965,1.6,12.41,47.84626,-54.09684
2018-01-31 19:10:00+00:00,191.8414,1.6,12.41,47.84626,-54.09684
2018-01-31 19:20:00+00:00,192.9048,1.6,12.49,47.84626,-54.09684
2018-01-31 19:30:00+00:00,200.3881,1.6,12.49,47.84626,-54.09684
2018-01-31 19:40:00+00:00,208.5198,1.6,12.49,47.84626,-54.09684
2018-01-31 19:50:00+00:00,207.2364,1.6,12.49,47.84626,-54.09684
2018-01-31 20:00:00+00:00,209.5865,1.6,12.41,47.84626,-54.09684
2018-01-31 20:10:00+00:00,229.1131,1.6,12.41,47.84626,-54.09684
2018-01-31 20:20:00+00:00,237.3197,1.6,12.49,47.84626,-54.09684
2018-01-31 20:30:00+00:00,232.1281,1.6,12.49,47.84626,-54.09684
2018-01-31 20:40:00+00:00,240.6015,1.6,12.49,47.84626,-54.09684
2018-01-31 20:50:00+00:00,257.6731,1.57,12.49,47.84626,-54.09684
2018-01-31 21:00:00+00:00,264.778,1.6,12.41,47.84626,-54.09684
2018-01-31 21:10:00+00:00,269.3464,1.6,12.41,47.84626,-54.09684
2018-01-31 21:20:00+00:00,286.248,1.6,12.49,47.84626,-54.09684
2018-01-31 21:30:00+00:00,302.3713,1.6,12.49,47.84626,-54.09684
2018-01-31 21:40:00+00:00,306.5697,1.63,12.49,47.84626,-54.09684
2018-01-31 21:50:00+00:00,312.4097,1.65,12.49,47.84626,-54.09684
2018-01-31 22:00:00+00:00,332.293,1.66,12.41,47.84626,-54.09684
2018-01-31 22:10:00+00:00,344.9012,1.67,12.41,47.84626,-54.09684
2018-01-31 22:20:00+00:00,343.9746,1.66,12.49,47.84626,-54.09684
2018-01-31 22:30:00+00:00,352.503,1.65,12.49,47.84626,-54.09684
2018-01-31 22:40:00+00:00,368.6313,1.64,12.49,47.84626,-54.09684
2018-01-31 22:50:00+00:00,363.8596,1.64,12.49,47.84626,-54.09684
2018-01-31 23:00:00+00:00,360.9896,1.62,12.41,47.84626,-54.09684
2018-01-31 23:10:00+00:00,389.5713,1.6,12.41,47.84626,-54.09684
2018-01-31 23:20:00+00:00,399.4695,1.6,12.49,47.84626,-54.09684
2018-01-31 23:30:00+00:00,373.0862,1.6,12.49,47.84626,-54.09684
2018-01-31 23:40:00+00:00,383.1013,1.6,12.49,47.84626,-54.09684
2018-01-31 23:50:00+00:00,393.3979,1.6,12.49,47.84626,-54.09684
